Regional Weather Roundup
Issued by NWS Green Bay, WI

Home | Current Version | Previous Version | Graphics & Text | Print | Product List | Glossary Off
Versions: 1 2 3 4 5 6 7 8 9 10 11 12 13 14 15 16 17 18 19 20 21 22 23 24 25 26 27 28 29 30 31 32 33 34 35 36 37 38 39 40 41 42 43 44 45 46 47 48 49 50

000
ASUS43 KGRB 300510
RWRGRB

NORTH-CENTRAL AND NORTHEAST WISCONSIN REGIONAL WEATHER ROUNDUP
NATIONAL WEATHER SERVICE GREEN BAY WI
1200 AM CDT SAT AUG 30 2014

WIZ005-009-010>012-018-019-300600-
NORTH CENTRAL WISCONSIN

CITY           SKY/WX    TMP DP  RH WIND       PRES   REMARKS
IRONWOOD       NOT AVBL
MANITOWISH WTR LGT RAIN  63  63 100 CALM      29.80F
ARBOR VITAE    LGT RAIN  63  62  95 S3        29.81F
EAGLE RIVER    LGT RAIN  64  64 100 CALM      29.81F
LAND O LAKES   LGT RAIN  64  64  99 S3        29.82F
RHINELANDER    CLOUDY    63  62  97 CALM      29.82F
PHILLIPS       DRIZZLE   64  64  99 S3        29.79F
ANTIGO         DRIZZLE   63  63  99 CALM      29.86R
TOMAHAWK       DRIZZLE   63  62  96 CALM      29.82F
MERRILL        DRIZZLE   64  64 100 CALM      29.82F
$$

WIZ013-073-300600-
NORTHEAST WISCONSIN

CITY           SKY/WX    TMP DP  RH WIND       PRES   REMARKS
IRON MOUNTAIN  CLOUDY    65  63  93 CALM      29.82R
MARINETTE      CLOUDY    72  66  83 SE6       29.81F
OCONTO         CLOUDY    69  69 100 CALM      29.81S
$$

WIZ017-030-035>037-045-300600-
CENTRAL WISCONSIN

CITY           SKY/WX    TMP DP  RH WIND       PRES   REMARKS
MEDFORD        LGT RAIN  63  63  99 CALM      29.80F
WAUSAU         RAIN      65  64  97 SE3       29.81F FOG
MOSINEE        RAIN      64  64 100 E3        29.84R
MARSHFIELD     RAIN      67  65  93 E3        29.80F FOG
WISC RAPIDS    RAIN      67  67 100 CALM      29.84S FOG
STEVENS POINT  CLOUDY    64  64  97 S3        29.85R
WAUPACA        CLOUDY    73  68  84 N8        29.82R
SHAWANO        CLOUDY    71  65  81 NW12      29.83R
CLINTONVILLE   CLOUDY    70  63  78 N8        29.82S
$$

WIZ038-039-048-051-300600-
FOX VALLEY

CITY           SKY/WX    TMP DP  RH WIND       PRES   REMARKS
NWS GREEN BAY  MOCLDY    73  71  93 S7        29.81S FOG
APPLETON       CLOUDY    73  70  88 S9        29.81S
OSHKOSH        CLOUDY    75  71  87 S14       29.80F
FOND DU LAC    CLOUDY    75  68  78 S13       29.81F
$$

WIZ022-050-052-300600-
EAST CENTRAL WISCONSIN

CITY           SKY/WX    TMP DP  RH WIND       PRES   REMARKS
STURGEON BAY   CLOUDY    70  66  88 S14G21    29.83S
MANITOWOC      MOCLDY    70  69  97 S13       29.82F
SHEBOYGAN      LGT RAIN  73  70  90 S13       29.83F FOG
$$

LMZ563-521-522-541>543-300600-
LAKESHORE

STATION/POSITION TIME  TEMP    WIND        PRES    VSBY  WAVE
                       AIR SEA DIR/SP/G                  HT/PER
                 (UTC) (F)     (DEG/KT/KT) (MB)    (MI)  (FT/S)
SHEBOYGAN LKSHOR 0500   70 63  180/ 19/ 20 1010.0F
KEWAUNEE LKSHORE 0500   65     180/  9/ 11 1009.4S
NORTHPORT PIER   0500   69     250/  5/ 10 1010.2R
N MID LAKE BUOY  0500   69 65  190/ 17/ 19 1009.4F         4/ 6
S GREEN BAY BUOY 0500   72     VRB  4/  6  1010.4R
CHAMBERS ISLAND  0500   70     200/  1/  4 1010.2S
MENOMINEE LKSHOR 0500   69     310/  4/  8 1010.4S
$$



USA.gov is the U.S. government's official web portal to all federal, state and local government web resources and services.